contact: severine.martini@mio.osupytheas.fr, dominique.lefevre@mio.osupytheas.fr
Project:EMSO Ligure-ouest http://www.emso-fr.org/EMSO-France
Sensor Optode, line 4330 Serial 272 
DOI : "https://doi.org/10.17882/97948" 
Title:EMSO Ligure Ouest : Data BathyDock capteur Optode - deploiement "2023-04-28"
Datetime,Profondeur,Latitude,Longitude,optode_type,serial,O2_concentration,O2_saturation,Temperature,Calibrated_Phase,Temp_Compensated_Phase,phase_blue_light,phase_red_light,Amplitude_blue_light,Amplitude_red_light,thermistor_bridge
time,m,degree_north,degree_east,1,1,umol.l-1,%,degree_C,degree,degree,degree,degree,mV,mV,mV
2023-11-27T00:00:07,2420,42.8014,5.9826,4330,272,186.672,57.169,13.307,36.027,36.607,41.197,4.589,295.6,544.8,291.3
2023-11-27T00:03:07,2420,42.8014,5.9826,4330,272,186.676,57.170,13.307,36.028,36.608,41.197,4.589,295.6,544.8,291.3
2023-11-27T00:06:07,2420,42.8014,5.9826,4330,272,186.538,57.127,13.307,36.036,36.616,41.206,4.590,295.6,544.7,291.3
2023-11-27T00:09:07,2420,42.8014,5.9826,4330,272,186.539,57.126,13.306,36.036,36.616,41.206,4.590,295.5,544.7,291.4
2023-11-27T00:12:07,2420,42.8014,5.9826,4330,272,186.612,57.147,13.305,36.033,36.613,41.205,4.592,295.6,544.8,291.4
2023-11-27T00:15:07,2420,42.8014,5.9826,4330,272,186.586,57.140,13.305,36.034,36.614,41.205,4.591,295.6,544.8,291.4
2023-11-27T00:18:08,2420,42.8014,5.9826,4330,272,186.675,57.167,13.305,36.028,36.608,41.197,4.589,295.6,544.8,291.4
2023-11-27T00:21:08,2420,42.8014,5.9826,4330,272,186.844,57.220,13.306,36.017,36.597,41.189,4.591,295.6,544.8,291.4
2023-11-27T00:24:08,2420,42.8014,5.9826,4330,272,186.625,57.153,13.306,36.032,36.612,41.204,4.592,295.6,544.7,291.4
2023-11-27T00:27:08,2420,42.8014,5.9826,4330,272,186.737,57.187,13.306,36.024,36.604,41.195,4.591,295.6,544.8,291.4
2023-11-27T00:30:07,2420,42.8014,5.9826,4330,272,186.665,57.165,13.306,36.029,36.609,41.199,4.590,295.6,544.8,291.4
2023-11-27T00:33:07,2420,42.8014,5.9826,4330,272,186.674,57.168,13.306,36.028,36.608,41.200,4.592,295.5,544.8,291.4
2023-11-27T00:36:07,2420,42.8014,5.9826,4330,272,186.563,57.137,13.309,36.034,36.614,41.205,4.591,295.6,544.8,291.3
2023-11-27T00:39:08,2420,42.8014,5.9826,4330,272,186.972,57.258,13.305,36.009,36.589,41.185,4.596,295.5,544.7,291.4
2023-11-27T00:42:08,2420,42.8014,5.9826,4330,272,186.675,57.169,13.307,36.028,36.608,41.198,4.591,295.6,544.8,291.3
2023-11-27T00:45:08,2420,42.8014,5.9826,4330,272,186.647,57.161,13.307,36.029,36.609,41.196,4.587,295.6,544.8,291.3
2023-11-27T00:48:08,2420,42.8014,5.9826,4330,272,186.703,57.178,13.307,36.025,36.605,41.199,4.593,295.6,544.7,291.3
2023-11-27T00:51:07,2420,42.8014,5.9826,4330,272,186.554,57.132,13.306,36.035,36.615,41.204,4.589,295.5,544.8,291.3
2023-11-27T00:54:07,2420,42.8014,5.9826,4330,272,186.747,57.196,13.311,36.021,36.601,41.191,4.590,295.6,544.8,291.2
2023-11-27T00:57:07,2420,42.8014,5.9826,4330,272,186.644,57.160,13.307,36.029,36.609,41.204,4.595,295.5,544.6,291.3
2023-11-27T01:00:07,2420,42.8014,5.9826,4330,272,186.897,57.236,13.306,36.013,36.594,41.190,4.596,295.6,544.8,291.4
2023-11-27T01:03:07,2420,42.8014,5.9826,4330,272,186.600,57.145,13.305,36.033,36.613,41.201,4.589,295.6,544.8,291.4
2023-11-27T01:06:07,2420,42.8014,5.9826,4330,272,186.559,57.131,13.305,36.036,36.616,41.205,4.589,295.6,544.8,291.4
2023-11-27T01:09:07,2420,42.8014,5.9826,4330,272,186.780,57.201,13.306,36.021,36.601,41.199,4.598,295.6,544.8,291.3
2023-11-27T01:12:07,2420,42.8014,5.9826,4330,272,186.576,57.136,13.304,36.035,36.615,41.201,4.586,295.6,544.8,291.4
2023-11-27T01:15:08,2420,42.8014,5.9826,4330,272,186.660,57.161,13.304,36.030,36.610,41.203,4.593,295.6,544.8,291.4
2023-11-27T01:18:08,2420,42.8014,5.9826,4330,272,186.897,57.234,13.305,36.014,36.594,41.191,4.596,295.6,544.7,291.4
2023-11-27T01:21:08,2420,42.8014,5.9826,4330,272,186.884,57.233,13.306,36.014,36.595,41.186,4.592,295.6,544.8,291.3
2023-11-27T01:24:08,2420,42.8014,5.9826,4330,272,186.693,57.172,13.304,36.027,36.607,41.197,4.590,295.6,544.8,291.4
2023-11-27T01:27:07,2420,42.8014,5.9826,4330,272,186.649,57.159,13.305,36.030,36.610,41.202,4.592,295.5,544.8,291.4
2023-11-27T01:30:07,2420,42.8014,5.9826,4330,272,186.653,57.161,13.306,36.030,36.610,41.199,4.589,295.6,544.8,291.4
2023-11-27T01:33:07,2420,42.8014,5.9826,4330,272,186.801,57.210,13.308,36.018,36.599,41.190,4.591,295.6,544.8,291.3
2023-11-27T01:36:07,2420,42.8014,5.9826,4330,272,186.833,57.219,13.307,36.017,36.597,41.185,4.587,295.6,544.8,291.3
2023-11-27T01:39:07,2420,42.8014,5.9826,4330,272,186.748,57.193,13.308,36.022,36.602,41.193,4.591,295.6,544.8,291.3
2023-11-27T01:42:08,2420,42.8014,5.9826,4330,272,186.617,57.152,13.307,36.031,36.611,41.204,4.593,295.6,544.8,291.3
2023-11-27T01:45:08,2420,42.8014,5.9826,4330,272,186.544,57.129,13.307,36.036,36.616,41.206,4.590,295.6,544.8,291.3
2023-11-27T01:48:08,2420,42.8014,5.9826,4330,272,186.658,57.161,13.304,36.030,36.610,41.197,4.587,295.6,544.8,291.4
2023-11-27T01:51:08,2420,42.8014,5.9826,4330,272,186.577,57.139,13.306,36.034,36.614,41.204,4.590,295.5,544.8,291.3
2023-11-27T01:54:07,2420,42.8014,5.9826,4330,272,186.372,57.078,13.308,36.046,36.626,41.212,4.586,295.5,544.7,291.3
2023-11-27T01:57:07,2420,42.8014,5.9826,4330,272,186.812,57.209,13.305,36.019,36.599,41.189,4.589,295.7,544.8,291.4
2023-11-27T02:00:07,2420,42.8014,5.9826,4330,272,186.822,57.218,13.310,36.016,36.597,41.191,4.594,295.6,544.8,291.2
2023-11-27T02:03:07,2420,42.8014,5.9826,4330,272,186.705,57.178,13.307,36.025,36.605,41.199,4.593,295.6,544.8,291.3
2023-11-27T02:06:07,2420,42.8014,5.9826,4330,272,186.869,57.228,13.307,36.015,36.595,41.187,4.592,295.6,544.7,291.3
2023-11-27T02:09:07,2420,42.8014,5.9826,4330,272,186.621,57.154,13.308,36.030,36.610,41.202,4.592,295.6,544.8,291.3
2023-11-27T02:12:07,2420,42.8014,5.9826,4330,272,186.827,57.215,13.306,36.018,36.598,41.197,4.598,295.7,544.8,291.4
2023-11-27T02:15:08,2420,42.8014,5.9826,4330,272,186.474,57.108,13.307,36.040,36.620,41.207,4.587,295.6,544.8,291.3
2023-11-27T02:18:08,2420,42.8014,5.9826,4330,272,186.604,57.147,13.306,36.032,36.612,41.205,4.593,295.6,544.7,291.4
2023-11-27T02:21:08,2420,42.8014,5.9826,4330,272,186.493,57.115,13.308,36.039,36.619,41.214,4.595,295.6,544.8,291.3
2023-11-27T02:24:08,2420,42.8014,5.9826,4330,272,186.577,57.139,13.307,36.033,36.613,41.200,4.587,295.6,544.8,291.3
2023-11-27T02:27:08,2420,42.8014,5.9826,4330,272,186.352,57.071,13.307,36.048,36.628,41.213,4.585,295.6,544.8,291.3
2023-11-27T02:30:07,2420,42.8014,5.9826,4330,272,186.618,57.154,13.309,36.031,36.611,41.207,4.596,295.6,544.8,291.3
2023-11-27T02:33:07,2420,42.8014,5.9826,4330,272,186.588,57.143,13.307,36.033,36.613,41.208,4.595,295.6,544.8,291.3
2023-11-27T02:36:07,2420,42.8014,5.9826,4330,272,186.555,57.135,13.308,36.034,36.615,41.205,4.590,295.6,544.8,291.3
2023-11-27T02:39:07,2420,42.8014,5.9826,4330,272,186.608,57.152,13.309,36.030,36.610,41.204,4.594,295.6,544.8,291.2
2023-11-27T02:42:08,2420,42.8014,5.9826,4330,272,186.743,57.191,13.308,36.023,36.603,41.194,4.591,295.7,544.8,291.3
2023-11-27T02:45:08,2420,42.8014,5.9826,4330,272,186.858,57.226,13.308,36.015,36.595,41.189,4.594,295.6,544.8,291.3
2023-11-27T02:48:08,2420,42.8014,5.9826,4330,272,186.562,57.134,13.306,36.035,36.615,41.201,4.587,295.6,544.8,291.3
2023-11-27T02:51:08,2420,42.8014,5.9826,4330,272,186.489,57.111,13.306,36.040,36.620,41.217,4.597,295.6,544.8,291.4
2023-11-27T02:54:07,2420,42.8014,5.9826,4330,272,186.640,57.157,13.305,36.030,36.610,41.204,4.593,295.7,544.8,291.4
2023-11-27T02:57:07,2420,42.8014,5.9826,4330,272,186.746,57.191,13.307,36.022,36.603,41.192,4.590,295.6,544.8,291.3
2023-11-27T03:00:07,2420,42.8014,5.9826,4330,272,186.537,57.126,13.306,36.037,36.617,41.206,4.589,295.6,544.8,291.4
2023-11-27T03:03:08,2420,42.8014,5.9826,4330,272,186.565,57.136,13.307,36.035,36.615,41.205,4.590,295.6,544.9,291.3
2023-11-27T03:06:07,2420,42.8014,5.9826,4330,272,186.607,57.149,13.307,36.032,36.612,41.208,4.595,295.6,544.8,291.3
2023-11-27T03:09:07,2420,42.8014,5.9826,4330,272,186.668,57.165,13.305,36.029,36.609,41.197,4.588,295.6,544.8,291.4
2023-11-27T03:12:07,2420,42.8014,5.9826,4330,272,186.597,57.143,13.305,36.034,36.614,41.201,4.588,295.6,544.9,291.4
2023-11-27T03:15:07,2420,42.8014,5.9826,4330,272,186.690,57.173,13.306,36.027,36.607,41.198,4.591,295.6,544.8,291.4
2023-11-27T03:18:07,2420,42.8014,5.9826,4330,272,186.441,57.096,13.306,36.044,36.624,41.216,4.592,295.6,544.9,291.4
2023-11-27T03:21:08,2420,42.8014,5.9826,4330,272,186.581,57.139,13.305,36.034,36.614,41.205,4.591,295.6,544.7,291.4
2023-11-27T03:24:08,2420,42.8014,5.9826,4330,272,186.672,57.168,13.306,36.028,36.608,41.202,4.594,295.6,544.8,291.3
2023-11-27T03:27:08,2420,42.8014,5.9826,4330,272,186.622,57.151,13.305,36.032,36.612,41.206,4.594,295.6,544.8,291.4
2023-11-27T03:30:08,2420,42.8014,5.9826,4330,272,186.609,57.150,13.308,36.031,36.611,41.200,4.589,295.6,544.7,291.3
2023-11-27T03:33:07,2420,42.8014,5.9826,4330,272,186.469,57.108,13.308,36.040,36.620,41.208,4.588,295.6,544.8,291.3
2023-11-27T03:36:07,2420,42.8014,5.9826,4330,272,186.491,57.114,13.308,36.039,36.619,41.212,4.593,295.6,544.8,291.3
2023-11-27T03:39:07,2420,42.8014,5.9826,4330,272,186.407,57.085,13.305,36.045,36.625,41.217,4.592,295.7,544.8,291.4
2023-11-27T03:42:07,2420,42.8014,5.9826,4330,272,186.646,57.160,13.306,36.030,36.610,41.203,4.593,295.6,544.8,291.3
2023-11-27T03:45:08,2420,42.8014,5.9826,4330,272,186.682,57.170,13.306,36.028,36.608,41.202,4.594,295.6,544.7,291.4
2023-11-27T03:48:08,2420,42.8014,5.9826,4330,272,186.488,57.111,13.306,36.040,36.620,41.215,4.595,295.7,544.8,291.4
2023-11-27T03:51:08,2420,42.8014,5.9826,4330,272,186.524,57.123,13.307,36.037,36.617,41.205,4.588,295.6,544.7,291.3
2023-11-27T03:54:08,2420,42.8014,5.9826,4330,272,186.574,57.138,13.307,36.034,36.614,41.204,4.589,295.6,544.8,291.3
2023-11-27T03:57:08,2420,42.8014,5.9826,4330,272,186.440,57.101,13.310,36.041,36.621,41.209,4.588,295.6,544.8,291.2
2023-11-27T04:00:07,2420,42.8014,5.9826,4330,272,186.414,57.093,13.310,36.043,36.623,41.215,4.592,295.6,544.7,291.2
2023-11-27T04:03:07,2420,42.8014,5.9826,4330,272,186.585,57.144,13.309,36.032,36.613,41.202,4.589,295.6,544.7,291.3
2023-11-27T04:06:07,2420,42.8014,5.9826,4330,272,186.475,57.108,13.307,36.040,36.620,41.209,4.589,295.7,544.8,291.3
2023-11-27T04:09:08,2420,42.8014,5.9826,4330,272,186.628,57.155,13.306,36.031,36.611,41.206,4.595,295.6,544.8,291.3
2023-11-27T04:12:08,2420,42.8014,5.9826,4330,272,186.573,57.137,13.306,36.034,36.615,41.206,4.591,295.6,544.8,291.4
2023-11-27T04:15:08,2420,42.8014,5.9826,4330,272,186.633,57.152,13.304,36.032,36.612,41.207,4.595,295.6,544.8,291.4
2023-11-27T04:18:08,2420,42.8014,5.9826,4330,272,186.573,57.135,13.304,36.035,36.615,41.205,4.590,295.7,544.8,291.4
2023-11-27T04:21:07,2420,42.8014,5.9826,4330,272,186.420,57.089,13.305,36.045,36.625,41.208,4.583,295.6,544.8,291.4
2023-11-27T04:24:07,2420,42.8014,5.9826,4330,272,186.492,57.110,13.304,36.041,36.621,41.216,4.595,295.7,544.8,291.4
2023-11-27T04:27:07,2420,42.8014,5.9826,4330,272,186.624,57.152,13.305,36.032,36.612,41.203,4.592,295.7,544.8,291.4
2023-11-27T04:30:08,2420,42.8014,5.9826,4330,272,186.680,57.167,13.303,36.029,36.609,41.205,4.597,295.7,544.8,291.4
2023-11-27T04:33:07,2420,42.8014,5.9826,4330,272,186.343,57.063,13.303,36.050,36.630,41.219,4.589,295.6,544.8,291.4
2023-11-27T04:36:07,2420,42.8014,5.9826,4330,272,186.296,57.050,13.304,36.053,36.633,41.224,4.591,295.6,544.8,291.4
2023-11-27T04:39:07,2420,42.8014,5.9826,4330,272,186.452,57.097,13.304,36.043,36.623,41.209,4.586,295.6,544.8,291.4
2023-11-27T04:42:07,2420,42.8014,5.9826,4330,272,186.501,57.112,13.304,36.040,36.620,41.210,4.590,295.6,544.8,291.4
2023-11-27T04:45:07,2420,42.8014,5.9826,4330,272,186.771,57.193,13.302,36.023,36.603,41.194,4.591,295.6,544.8,291.5
2023-11-27T04:48:07,2420,42.8014,5.9826,4330,272,186.433,57.092,13.304,36.045,36.625,41.215,4.590,295.6,544.8,291.4
2023-11-27T04:51:07,2420,42.8014,5.9826,4330,272,186.685,57.169,13.304,36.028,36.608,41.204,4.596,295.7,544.7,291.4
2023-11-27T04:54:08,2420,42.8014,5.9826,4330,272,186.571,57.133,13.303,36.036,36.616,41.212,4.596,295.6,544.9,291.4
2023-11-27T04:57:08,2420,42.8014,5.9826,4330,272,186.527,57.120,13.304,36.038,36.618,41.208,4.590,295.6,544.8,291.4
2023-11-27T05:00:08,2420,42.8014,5.9826,4330,272,186.760,57.194,13.305,36.022,36.602,41.195,4.592,295.6,544.8,291.4
2023-11-27T05:03:07,2420,42.8014,5.9826,4330,272,186.626,57.151,13.304,36.032,36.612,41.204,4.592,295.7,544.8,291.4
2023-11-27T05:06:07,2420,42.8014,5.9826,4330,272,186.486,57.109,13.305,36.041,36.621,41.212,4.591,295.7,544.8,291.4
2023-11-27T05:09:07,2420,42.8014,5.9826,4330,272,186.423,57.088,13.304,36.045,36.625,41.215,4.590,295.6,544.8,291.4
2023-11-27T05:12:08,2420,42.8014,5.9826,4330,272,186.446,57.094,13.303,36.044,36.624,41.212,4.588,295.6,544.8,291.5
2023-11-27T05:15:08,2420,42.8014,5.9826,4330,272,186.659,57.161,13.304,36.029,36.609,41.201,4.592,295.6,544.8,291.4
2023-11-27T05:18:08,2420,42.8014,5.9826,4330,272,186.519,57.119,13.305,36.039,36.619,41.210,4.591,295.6,544.8,291.4
2023-11-27T05:21:07,2420,42.8014,5.9826,4330,272,186.667,57.164,13.304,36.029,36.609,41.202,4.593,295.6,544.8,291.4
2023-11-27T05:24:07,2420,42.8014,5.9826,4330,272,186.426,57.090,13.304,36.045,36.625,41.215,4.590,295.7,544.8,291.4
2023-11-27T05:27:07,2420,42.8014,5.9826,4330,272,186.666,57.166,13.306,36.029,36.609,41.199,4.591,295.7,544.8,291.4
2023-11-27T05:30:07,2420,42.8014,5.9826,4330,272,186.579,57.139,13.306,36.034,36.614,41.210,4.596,295.6,544.8,291.4
2023-11-27T05:33:07,2420,42.8014,5.9826,4330,272,186.491,57.110,13.305,36.040,36.620,41.209,4.589,295.7,544.8,291.4
2023-11-27T05:36:07,2420,42.8014,5.9826,4330,272,186.675,57.167,13.305,36.028,36.608,41.202,4.594,295.6,544.8,291.4
2023-11-27T05:39:07,2420,42.8014,5.9826,4330,272,186.736,57.185,13.304,36.025,36.605,41.195,4.590,295.6,544.8,291.4
2023-11-27T05:42:07,2420,42.8014,5.9826,4330,272,186.582,57.139,13.305,36.034,36.614,41.203,4.589,295.7,544.8,291.4
2023-11-27T05:45:07,2420,42.8014,5.9826,4330,272,186.477,57.104,13.303,36.042,36.622,41.213,4.591,295.6,544.8,291.5
2023-11-27T05:48:08,2420,42.8014,5.9826,4330,272,186.237,57.030,13.303,36.058,36.637,41.222,4.585,295.6,544.8,291.5
2023-11-27T05:51:08,2420,42.8014,5.9826,4330,272,186.526,57.120,13.304,36.039,36.619,41.208,4.589,295.6,544.7,291.4
2023-11-27T05:54:08,2420,42.8014,5.9826,4330,272,186.530,57.121,13.303,36.039,36.619,41.213,4.594,295.5,544.9,291.4
2023-11-27T05:57:08,2420,42.8014,5.9826,4330,272,186.407,57.084,13.305,36.046,36.626,41.215,4.589,295.7,544.8,291.4
2023-11-27T06:00:07,2420,42.8014,5.9826,4330,272,186.634,57.154,13.305,36.031,36.611,41.207,4.596,295.7,544.8,291.4
2023-11-27T06:03:07,2420,42.8014,5.9826,4330,272,186.654,57.159,13.304,36.031,36.611,41.201,4.590,295.6,544.8,291.4
2023-11-27T06:06:07,2420,42.8014,5.9826,4330,272,186.584,57.136,13.302,36.035,36.615,41.203,4.588,295.6,544.8,291.5
2023-11-27T06:09:08,2420,42.8014,5.9826,4330,272,186.583,57.138,13.304,36.035,36.615,41.207,4.592,295.6,544.8,291.4
2023-11-27T06:12:08,2420,42.8014,5.9826,4330,272,186.525,57.119,13.304,36.039,36.619,41.214,4.595,295.6,544.8,291.4
2023-11-27T06:15:08,2420,42.8014,5.9826,4330,272,186.733,57.183,13.303,36.025,36.605,41.194,4.588,295.7,544.8,291.4
2023-11-27T06:18:08,2420,42.8014,5.9826,4330,272,186.508,57.115,13.304,36.039,36.619,41.210,4.590,295.7,544.8,291.4
2023-11-27T06:21:08,2420,42.8014,5.9826,4330,272,186.661,57.164,13.306,36.029,36.609,41.199,4.590,295.6,544.8,291.4
2023-11-27T06:24:07,2420,42.8014,5.9826,4330,272,186.729,57.182,13.304,36.025,36.605,41.201,4.596,295.7,544.8,291.4
2023-11-27T06:27:07,2420,42.8014,5.9826,4330,272,186.583,57.136,13.303,36.035,36.615,41.207,4.592,295.7,544.8,291.5
2023-11-27T06:30:07,2420,42.8014,5.9826,4330,272,186.821,57.209,13.303,36.020,36.600,41.193,4.593,295.6,544.8,291.5
2023-11-27T06:33:08,2420,42.8014,5.9826,4330,272,186.636,57.154,13.304,36.031,36.611,41.196,4.584,295.7,544.9,291.4
2023-11-27T06:36:07,2420,42.8014,5.9826,4330,272,186.564,57.130,13.303,36.037,36.617,41.206,4.589,295.7,544.8,291.5
2023-11-27T06:39:07,2420,42.8014,5.9826,4330,272,186.781,57.196,13.302,36.023,36.603,41.194,4.591,295.7,544.8,291.5
2023-11-27T06:42:07,2420,42.8014,5.9826,4330,272,186.567,57.132,13.303,36.036,36.616,41.210,4.594,295.6,544.8,291.4
2023-11-27T06:45:08,2420,42.8014,5.9826,4330,272,186.847,57.218,13.303,36.018,36.598,41.191,4.593,295.6,544.8,291.4
2023-11-27T06:48:07,2420,42.8014,5.9826,4330,272,186.334,57.060,13.303,36.051,36.631,41.222,4.591,295.6,544.8,291.5
2023-11-27T06:51:07,2420,42.8014,5.9826,4330,272,186.788,57.200,13.304,36.021,36.601,41.191,4.590,295.6,544.8,291.4
2023-11-27T06:54:07,2420,42.8014,5.9826,4330,272,186.358,57.067,13.303,36.050,36.630,41.227,4.597,295.7,544.9,291.5
2023-11-27T06:57:07,2420,42.8014,5.9826,4330,272,186.693,57.170,13.303,36.028,36.608,41.198,4.590,295.7,544.8,291.5
2023-11-27T07:00:07,2420,42.8014,5.9826,4330,272,186.591,57.138,13.303,36.035,36.615,41.206,4.591,295.6,544.8,291.5
2023-11-27T07:03:07,2420,42.8014,5.9826,4330,272,186.285,57.045,13.303,36.054,36.634,41.221,4.586,295.7,544.9,291.5
2023-11-27T07:06:07,2420,42.8014,5.9826,4330,272,186.765,57.192,13.303,36.023,36.603,41.194,4.591,295.7,544.8,291.5
2023-11-27T07:09:07,2420,42.8014,5.9826,4330,272,186.648,57.156,13.303,36.031,36.611,41.201,4.590,295.6,544.9,291.5
2023-11-27T07:12:07,2420,42.8014,5.9826,4330,272,186.865,57.224,13.304,36.017,36.597,41.193,4.597,295.6,544.8,291.4
2023-11-27T07:15:07,2420,42.8014,5.9826,4330,272,186.599,57.144,13.305,36.034,36.614,41.200,4.586,295.6,544.8,291.4
2023-11-27T07:18:08,2420,42.8014,5.9826,4330,272,186.622,57.149,13.304,36.032,36.612,41.206,4.594,295.7,544.8,291.4
2023-11-27T07:21:08,2420,42.8014,5.9826,4330,272,186.363,57.069,13.303,36.049,36.629,41.224,4.595,295.7,544.8,291.5
2023-11-27T07:24:08,2420,42.8014,5.9826,4330,272,186.775,57.196,13.304,36.022,36.603,41.197,4.594,295.7,544.8,291.4
2023-11-27T07:27:08,2420,42.8014,5.9826,4330,272,186.554,57.126,13.302,36.037,36.617,41.212,4.594,295.6,544.9,291.5
2023-11-27T07:30:08,2420,42.8014,5.9826,4330,272,186.580,57.137,13.304,36.035,36.615,41.207,4.592,295.7,544.8,291.4
2023-11-27T07:33:07,2420,42.8014,5.9826,4330,272,186.550,57.127,13.304,36.037,36.617,41.215,4.598,295.7,544.8,291.4
2023-11-27T07:36:07,2420,42.8014,5.9826,4330,272,186.544,57.126,13.304,36.037,36.617,41.211,4.593,295.6,544.8,291.4
2023-11-27T07:39:07,2420,42.8014,5.9826,4330,272,186.751,57.189,13.304,36.024,36.604,41.201,4.598,295.6,544.8,291.4
2023-11-27T07:42:07,2420,42.8014,5.9826,4330,272,186.343,57.066,13.306,36.049,36.629,41.219,4.589,295.7,544.8,291.4
2023-11-27T07:45:08,2420,42.8014,5.9826,4330,272,186.627,57.154,13.307,36.031,36.611,41.203,4.592,295.6,544.8,291.3
2023-11-27T07:48:08,2420,42.8014,5.9826,4330,272,186.698,57.175,13.306,36.026,36.606,41.198,4.592,295.7,544.8,291.4
2023-11-27T07:51:08,2420,42.8014,5.9826,4330,272,186.620,57.150,13.305,36.031,36.611,41.201,4.590,295.6,544.8,291.4
2023-11-27T07:54:08,2420,42.8014,5.9826,4330,272,186.776,57.197,13.304,36.022,36.602,41.198,4.596,295.6,544.8,291.4
2023-11-27T07:57:07,2420,42.8014,5.9826,4330,272,186.348,57.070,13.307,36.049,36.629,41.223,4.595,295.6,544.8,291.3
2023-11-27T08:00:07,2420,42.8014,5.9826,4330,272,186.668,57.163,13.304,36.029,36.610,41.199,4.590,295.6,544.8,291.4
2023-11-27T08:03:07,2420,42.8014,5.9826,4330,272,186.409,57.083,13.303,36.046,36.626,41.213,4.586,295.7,544.8,291.4
2023-11-27T08:06:07,2420,42.8014,5.9826,4330,272,186.546,57.125,13.303,36.038,36.618,41.205,4.588,295.6,544.8,291.5
2023-11-27T08:09:07,2420,42.8014,5.9826,4330,272,186.762,57.193,13.305,36.023,36.603,41.197,4.593,295.6,544.8,291.4
2023-11-27T08:12:07,2420,42.8014,5.9826,4330,272,186.707,57.176,13.304,36.027,36.607,41.195,4.588,295.7,544.9,291.4
2023-11-27T08:15:07,2420,42.8014,5.9826,4330,272,186.639,57.154,13.304,36.032,36.612,41.203,4.592,295.6,544.8,291.4
2023-11-27T08:18:08,2420,42.8014,5.9826,4330,272,186.609,57.145,13.304,36.033,36.613,41.210,4.597,295.6,544.9,291.4
2023-11-27T08:21:08,2420,42.8014,5.9826,4330,272,186.369,57.072,13.304,36.049,36.629,41.219,4.590,295.7,544.8,291.4
2023-11-27T08:24:08,2420,42.8014,5.9826,4330,272,186.556,57.129,13.304,36.037,36.617,41.208,4.591,295.6,544.8,291.4
2023-11-27T08:27:07,2420,42.8014,5.9826,4330,272,186.582,57.139,13.306,36.034,36.614,41.204,4.591,295.6,544.8,291.4
2023-11-27T08:30:07,2420,42.8014,5.9826,4330,272,186.449,57.096,13.304,36.043,36.623,41.219,4.596,295.6,544.8,291.4
2023-11-27T08:33:08,2420,42.8014,5.9826,4330,272,186.726,57.187,13.308,36.023,36.603,41.190,4.587,295.6,544.7,291.3
2023-11-27T08:36:07,2420,42.8014,5.9826,4330,272,186.537,57.125,13.305,36.037,36.617,41.202,4.585,295.7,544.8,291.4
2023-11-27T08:39:07,2420,42.8014,5.9826,4330,272,186.680,57.169,13.305,36.028,36.608,41.195,4.587,295.6,544.8,291.4
2023-11-27T08:42:07,2420,42.8014,5.9826,4330,272,186.696,57.171,13.303,36.028,36.608,41.203,4.594,295.7,544.9,291.5
2023-11-27T08:45:07,2420,42.8014,5.9826,4330,272,186.792,57.199,13.302,36.022,36.602,41.186,4.584,295.6,544.8,291.5
2023-11-27T08:48:07,2420,42.8014,5.9826,4330,272,186.367,57.072,13.305,36.048,36.628,41.214,4.585,295.6,544.8,291.4
2023-11-27T08:51:08,2420,42.8014,5.9826,4330,272,186.627,57.151,13.304,36.032,36.612,41.202,4.589,295.6,544.8,291.4
2023-11-27T08:54:08,2420,42.8014,5.9826,4330,272,186.545,57.128,13.306,36.036,36.616,41.213,4.597,295.6,544.8,291.4
2023-11-27T08:57:08,2420,42.8014,5.9826,4330,272,186.714,57.181,13.307,36.025,36.605,41.202,4.597,295.6,544.8,291.3
2023-11-27T09:00:07,2420,42.8014,5.9826,4330,272,186.783,57.202,13.306,36.020,36.600,41.196,4.596,295.7,544.8,291.3
2023-11-27T09:03:07,2420,42.8014,5.9826,4330,272,186.437,57.100,13.309,36.042,36.622,41.208,4.586,295.7,544.8,291.3
2023-11-27T09:06:07,2420,42.8014,5.9826,4330,272,186.615,57.147,13.304,36.033,36.613,41.205,4.592,295.7,544.9,291.4
2023-11-27T09:09:07,2420,42.8014,5.9826,4330,272,186.431,57.090,13.303,36.045,36.625,41.211,4.586,295.6,544.8,291.4
2023-11-27T09:12:07,2420,42.8014,5.9826,4330,272,186.590,57.138,13.302,36.035,36.615,41.204,4.589,295.6,544.8,291.5
2023-11-27T09:15:08,2420,42.8014,5.9826,4330,272,186.582,57.135,13.302,36.036,36.616,41.206,4.590,295.6,544.8,291.5
2023-11-27T09:18:08,2420,42.8014,5.9826,4330,272,186.664,57.160,13.302,36.030,36.611,41.200,4.589,295.7,544.8,291.5
2023-11-27T09:21:08,2420,42.8014,5.9826,4330,272,186.567,57.133,13.304,36.035,36.615,41.208,4.592,295.5,544.8,291.4
2023-11-27T09:24:07,2420,42.8014,5.9826,4330,272,186.386,57.077,13.304,36.048,36.628,41.216,4.588,295.5,544.8,291.4
2023-11-27T09:27:07,2420,42.8014,5.9826,4330,272,186.486,57.111,13.306,36.040,36.620,41.210,4.590,295.7,544.8,291.3
2023-11-27T09:30:07,2420,42.8014,5.9826,4330,272,186.857,57.223,13.305,36.016,36.597,41.189,4.593,295.7,544.8,291.4
2023-11-27T09:33:07,2420,42.8014,5.9826,4330,272,186.811,57.209,13.305,36.019,36.600,41.193,4.593,295.6,544.8,291.4
2023-11-27T09:36:07,2420,42.8014,5.9826,4330,272,186.602,57.141,13.302,36.034,36.614,41.207,4.592,295.6,544.8,291.5
2023-11-27T09:39:07,2420,42.8014,5.9826,4330,272,186.736,57.183,13.303,36.026,36.606,41.197,4.592,295.5,544.8,291.5
2023-11-27T09:42:08,2420,42.8014,5.9826,4330,272,186.700,57.173,13.304,36.028,36.608,41.196,4.588,295.6,544.8,291.4
2023-11-27T09:45:08,2420,42.8014,5.9826,4330,272,186.659,57.162,13.305,36.029,36.610,41.203,4.594,295.6,544.8,291.4
2023-11-27T09:48:08,2420,42.8014,5.9826,4330,272,186.528,57.124,13.307,36.037,36.617,41.207,4.590,295.6,544.7,291.3
2023-11-27T09:51:08,2420,42.8014,5.9826,4330,272,186.538,57.124,13.304,36.037,36.617,41.206,4.589,295.6,544.9,291.4
2023-11-27T09:54:07,2420,42.8014,5.9826,4330,272,186.333,57.062,13.305,36.051,36.631,41.218,4.587,295.6,544.8,291.4
2023-11-27T09:57:07,2420,42.8014,5.9826,4330,272,186.509,57.115,13.304,36.040,36.620,41.212,4.593,295.6,544.9,291.4
2023-11-27T10:00:07,2420,42.8014,5.9826,4330,272,186.648,57.159,13.305,36.030,36.610,41.201,4.591,295.7,544.8,291.4